Location: Newark
(0.5300°S, 127.4800°E)
Time: 12:56:16
(UTC+00:00)

A-11 Canister half - Pass Details

Date: 22 September 2019
Orbit: 1514 x 1686 km, 47.2° (Epoch: 18 October)

Event Time Altitude Azimuth Distance (km) Brightness Sun altitude
Rises 19:41:02 0° 193° (SSW) 4,908 11.5 -25.4°
Reaches altitude 10° 19:45:38 10° 176° (S) 3,894 11.2 -24.3°
Maximum altitude 19:52:02 19° 135° (SE) 3,202 11.2 -22.7°
Drops below altitude 10° 19:58:16 10° 94° (E) 3,802 12.2 -21.1°
Sets 20:02:36 0° 77° (ENE) 4,753 13.0 -20.0°
